User: anonymous   Login
Location: Unspecified
(0.0000°N, 0.0000°E)
Time: 17:47:17
(UTC+00:00)
Language:

Skynet 4A - Orbit

View from above orbital plane
View from above orbital plane
View from above satellite
View from above satellite

Ground track
Ground track

The orbit data is extracted from the following two-line orbital elements,

1 20401U 90001A   17085.03641601 -.00000102 +00000-0 +00000-0 0  9993
2 20401 013.2860 013.4801 0015933 241.3521 319.8411 00.98998763013409
Epoch (UTC): 26 March 2017 00:52:26
Eccentricity: 0.0015933
inclination: 13.2860°
perigee height: 36079 km
apogee height: 36214 km
right ascension of ascending node: 13.4801°
argument of perigee: 241.3521°
revolutions per day: 0.98998763
mean anomaly at epoch: 319.8411°
orbit number at epoch: 1340

The dashed part of the orbit path shows where the satellite is in the earth's shadow,  

DLR